Weather History for Hondo, TX

Change the Weather History Date:

Monday, October 14, 2013

  Actual Average Record
Temperature  
Mean Temperature 80 °F -  
Max Temperature 87 °F 80 °F 91 °F (2012)
Min Temperature 73 °F 57 °F 42 °F (2014)
Cooling Degree Days 14    
Growing Degree Days 30 (Base 50)    
Moisture  
Dew Point 71 °F    
Average Humidity 82    
Maximum Humidity 94    
Minimum Humidity 55    
Precipitation  
Precipitation 0.01 in - - ()
Sea Level Pressure  
Sea Level Pressure 30.03 in    
Wind  
Wind Speed 7 mph (SE)    
Max Wind Speed 16 mph    
Max Gust Speed 21 mph    
Visibility 9 miles    
Events Rain    
Averages and records for this station are not official NWS values.
T = Trace of Precipitation, MM = Missing Value Source: NWS Daily Summary

Daily Weather History Graph

Daily Weather History Graph

Search for Another Location

Airport:

Trip Planner

Search our weather history database for the weather conditions in past years. The results will help you decide how hot, cold, wet, or windy it might be!

Date:

Astronomy

Oct. 14, 2013 Rise Set
Actual Time 7:37 AM CDT 7:07 PM CDT
Civil Twilight 7:13 AM CDT 7:31 PM CDT
Nautical Twilight 6:46 AM CDT 7:58 PM CDT
Astronomical Twilight 6:18 AM CDT 8:26 PM CDT
Moon 4:20 PM CDT (10/14) 3:15 AM CDT (10/14)
Length of Visible Light 12h 17m
Length of Day
11h 29m
Waxing Gibbous, 79% of the Moon is Illuminated
Oct 14
Waxing Gibbous
Oct 18
Full
Oct 26
Last Quarter
Nov 3
New
Nov 9
First Quarter

Hourly Weather History & Observations

Time (CDT) Temp. Heat Index Dew Point Humidity Pressure Visibility Wind Dir Wind Speed Gust Speed Precip Events Conditions
12:13 AM 73.9 °F - 71.1 °F 91% 30.11 in 10.0 mi East 5.8 mph - N/A   Overcast
12:51 AM 73.9 °F - 71.1 °F 91% 30.06 in 10.0 mi East 6.9 mph - N/A   Overcast
1:04 AM 73.0 °F - 71.1 °F 93% 30.09 in 10.0 mi East 6.9 mph - N/A   Overcast
1:51 AM 73.9 °F - 71.1 °F 91% 30.04 in 10.0 mi NE 4.6 mph - N/A   Overcast
2:00 AM 73.9 °F - 71.1 °F 91% 30.08 in 10.0 mi NE 5.8 mph - N/A   Overcast
2:31 AM 73.9 °F - 71.1 °F 91% 30.09 in 10.0 mi ENE 4.6 mph - N/A   Overcast
2:51 AM 73.9 °F - 71.1 °F 91% 30.04 in 9.0 mi NE 4.6 mph - N/A   Overcast
3:37 AM 73.9 °F - 71.1 °F 91% 30.06 in 8.0 mi ENE 4.6 mph - N/A   Overcast
3:47 AM 73.4 °F - 71.6 °F 94% 30.06 in 8.0 mi East 4.6 mph - N/A   Overcast
3:48 AM 73.4 °F - 71.6 °F 94% 30.06 in 8.0 mi East 4.6 mph - N/A   Overcast
3:51 AM 73.9 °F - 71.1 °F 91% 30.02 in 8.0 mi East 5.8 mph - N/A   Overcast
4:42 AM 73.9 °F - 71.1 °F 91% 30.06 in 8.0 mi East 5.8 mph - N/A   Overcast
4:51 AM 73.9 °F - 71.1 °F 91% 30.02 in 8.0 mi East 5.8 mph - N/A   Overcast
4:57 AM 73.9 °F - 71.1 °F 91% 30.05 in 8.0 mi East 5.8 mph - N/A   Overcast
5:06 AM 73.9 °F - 71.1 °F 91% 30.06 in 5.0 mi East 5.8 mph - 0.01 in Rain Light Rain
5:30 AM 73.9 °F - 71.1 °F 91% 30.06 in 8.0 mi ESE 6.9 mph - 0.01 in   Overcast
5:51 AM 73.9 °F - 71.1 °F 91% 30.03 in 9.0 mi SE 6.9 mph - 0.01 in   Overcast
6:00 AM 73.9 °F - 71.1 °F 91% 30.07 in 10.0 mi SE 8.1 mph - N/A   Overcast
6:33 AM 73.9 °F - 71.1 °F 91% 30.07 in 9.0 mi ESE 4.6 mph - N/A   Overcast
6:48 AM 73.4 °F - 71.6 °F 94% 30.07 in 9.0 mi ESE 6.9 mph - N/A   Overcast
6:51 AM 73.9 °F - 71.1 °F 91% 30.03 in 9.0 mi SE 8.1 mph - N/A   Overcast
7:13 AM 73.9 °F - 71.1 °F 91% 30.06 in 10.0 mi ESE 6.9 mph - N/A   Overcast
7:26 AM 73.9 °F - 71.1 °F 91% 30.07 in 9.0 mi SE 8.1 mph - N/A   Overcast
7:33 AM 73.9 °F - 71.1 °F 91% 30.07 in 9.0 mi SE 10.4 mph - N/A   Overcast
7:51 AM 73.9 °F - 71.1 °F 91% 30.03 in 10.0 mi SSE 10.4 mph - N/A   Overcast
8:51 AM 75.0 °F - 72.0 °F 90% 30.04 in 9.0 mi SE 6.9 mph - N/A   Overcast
9:51 AM 77.0 °F - 72.0 °F 84% 30.04 in 10.0 mi South 8.1 mph - N/A   Mostly Cloudy
10:10 AM 78.1 °F - 71.1 °F 79% 30.08 in 10.0 mi South 8.1 mph - N/A   Overcast
10:41 AM 79.0 °F - 72.0 °F 79% 30.08 in 10.0 mi SE 9.2 mph - N/A   Mostly Cloudy
10:51 AM 80.1 °F 83.8 °F 72.0 °F 76% 30.04 in 10.0 mi South 9.2 mph - N/A   Mostly Cloudy
11:13 AM 80.1 °F 83.8 °F 72.0 °F 76% 30.08 in 10.0 mi South 11.5 mph - N/A   Mostly Cloudy
11:41 AM 82.0 °F 86.3 °F 71.1 °F 69% 30.07 in 10.0 mi SSE 11.5 mph - N/A   Scattered Clouds
11:51 AM 81.0 °F 84.9 °F 71.1 °F 72% 30.02 in 10.0 mi South 12.7 mph 20.7 mph N/A   Scattered Clouds
12:17 PM 82.9 °F 87.0 °F 70.0 °F 65% 30.05 in 10.0 mi South 11.5 mph - N/A   Mostly Cloudy
12:26 PM 84.9 °F 88.8 °F 69.1 °F 59% 30.05 in 10.0 mi South 16.1 mph - N/A   Scattered Clouds
12:51 PM 84.9 °F 89.4 °F 70.0 °F 61% 29.99 in 10.0 mi South 10.4 mph - N/A   Scattered Clouds
1:51 PM 86.0 °F 90.1 °F 69.1 °F 57% 29.96 in 10.0 mi South 11.5 mph - N/A   Scattered Clouds
2:51 PM 86.0 °F 90.1 °F 69.1 °F 57% 29.93 in 10.0 mi South 11.5 mph - N/A   Scattered Clouds
3:51 PM 86.0 °F 89.4 °F 68.0 °F 55% 29.90 in 10.0 mi South 15.0 mph - N/A   Scattered Clouds
4:51 PM 84.9 °F 88.2 °F 68.0 °F 57% 29.89 in 10.0 mi SSE 11.5 mph - N/A   Partly Cloudy
5:51 PM 84.9 °F 88.2 °F 68.0 °F 57% 29.90 in 10.0 mi SSE 10.4 mph - N/A   Mostly Cloudy
6:51 PM 82.0 °F 84.9 °F 68.0 °F 62% 29.91 in 10.0 mi SSE 8.1 mph - N/A   Partly Cloudy
7:51 PM 78.1 °F - 68.0 °F 71% 29.91 in 10.0 mi SE 6.9 mph - N/A   Clear
8:51 PM 78.1 °F - 68.0 °F 71% 29.93 in 10.0 mi SE 6.9 mph - N/A   Mostly Cloudy
9:51 PM 78.1 °F - 72.0 °F 81% 29.95 in 10.0 mi SE 9.2 mph - N/A   Clear
10:51 PM 77.0 °F - 71.1 °F 82% 29.96 in 10.0 mi SE 10.4 mph - N/A   Clear
11:51 PM 75.9 °F - 71.1 °F 85% 29.96 in 10.0 mi SE 9.2 mph - N/A   Clear